Location: Glubokaya Balka
(48.0133°N, 39.0067°E)
Time: 14:47:59
(UTC+00:00)

Daily predictions for brighter satellites

Satellite Brightness Start Highest point End
(mag) Time Altitude Azimuth Time Altitude Azimuth Time Altitude Azimuth
NOSS 3-1 (C) 3.6 14:08:54 10° SSW 14:14:13 51° ESE 14:20:21 10° NE
Cosmos 2221 2.5 14:11:10 10° S 14:15:29 76° E 14:19:51 10° NNE
NOSS 3-1 (A) 4.1 14:10:49 10° S 14:15:45 34° ESE 14:21:18 10° NE
Cosmos 1238 Rocket 2.7 14:11:37 10° N 14:15:54 75° E 14:19:24 10° SSE
Cosmos 2369 Rocket 4.3 14:13:44 10° W 14:17:25 18° NW 14:21:07 10° N
Cosmos 1538 Rocket 4.2 14:12:40 10° S 14:17:47 55° ESE 14:23:00 10° NNE
Cosmos 2219 3.5 14:14:34 10° NNW 14:20:11 73° WSW 14:25:46 10° SSE
BREEZE-M DEB (TANK) 4.4 14:17:22 10° SW 14:21:06 52° SE 14:33:15 10° ENE
Feng Yun 1-1 Rocket 4.2 14:17:30 10° SSE 14:22:59 63° ENE 14:28:22 10° N
CORIOLIS 4.3 14:18:45 10° SE 14:23:57 51° ENE 14:29:13 10° N
BREEZE-M DEB (TANK) 3.4 14:12:10 10° WSW 14:24:30 89° NNW 14:28:00 10° ENE
NOSS 8 (A) 4.3 14:23:25 10° SW 14:26:34 74° NW 14:29:37 10° NE
Cosmos 2344 4.0 14:20:02 10° SW 14:27:29 66° NW 14:35:59 10° NE
Cosmos 1980 Rocket 3.6 14:27:32 10° SE 14:31:18 18° E 14:35:05 10° ENE
ASTEX 1 3.7 14:27:03 10° N 14:32:05 73° W 14:37:02 10° SSW
SeaSat 1 2.9 14:28:17 10° ESE 14:32:48 38° NE 14:37:22 10° NNW
YAOGAN 1 4.0 14:30:15 10° ESE 14:33:05 17° ENE 14:35:55 10° NNE
Cosmos 2297 Rocket 2.4 14:29:26 10° NNW 14:35:08 82° WSW 14:40:47 10° SSE
Cosmos 2227 Rocket 2.3 14:29:51 10° NNW 14:35:34 87° WSW 14:41:13 10° SSE
Envisat 3.4 14:35:55 10° SE 14:40:40 42° ENE 14:45:27 10° N
CENTAUR R/B 4.2 14:37:50 10° NW 14:43:35 25° N 14:49:26 12° NE
ERBS 2.3 14:43:06 10° SW 14:46:24 70° SE 14:48:54 17° ENE
Cosmos 2034 Rocket 4.3 14:43:16 10° N 14:49:22 45° ENE 14:55:26 10° SE
NOAA 12 4.1 14:46:41 10° SSE 14:51:56 64° ENE 14:57:14 10° N
Cosmos 2263 Rocket 3.3 14:48:42 10° N 14:53:08 23° NE 14:56:01 16° E
SKYMED 2 4.5 14:50:28 10° NE 14:54:16 28° E 14:58:01 10° SSE
Cosmos 1869 3.3 14:50:24 10° S 14:54:20 86° W 14:58:18 10° N
NOSS 2-3 (C) 4.3 14:50:57 10° S 14:54:59 38° ESE 14:58:26 16° ENE
GEOS 3 Rocket 4.0 14:51:29 13° NE 14:56:02 48° ESE 15:01:07 10° SSW
Cosmos 2369 3.8 14:53:38 10° S 14:59:08 56° ESE 15:04:43 10° NE
Cosmos 1805 Rocket 4.0 14:55:26 10° NNW 14:59:47 66° W 15:04:07 10° S
Cosmos 1371 Rocket 4.3 14:54:57 10° NNW 14:59:56 43° ENE 15:04:51 10° SE
ATLAS 5 CENTAUR R/B 3.5 14:56:20 10° NW 15:01:54 47° WSW 15:08:13 10° SSE
Cosmos 1633 2.4 14:59:37 10° N 15:03:17 81° E 15:06:55 10° SSE
H-2A R/B 3.1 14:59:36 10° S 15:03:26 68° WSW 15:07:15 10° NNW
ATLAS 3B R/B 4.1 14:59:37 10° NW 15:04:29 21° N 15:08:17 13° NE
Meteor 2-20 Rocket 4.4 14:58:35 10° S 15:04:42 81° E 15:10:53 10° NNE
FengYun 1-2 T 4.3 15:00:10 10° SE 15:05:30 54° ENE 15:10:51 10° N
Cosmos 2082 3.8 15:00:05 10° NNW 15:05:44 81° WSW 15:11:21 10° SSE
Geosat 4.2 15:01:26 12° NE 15:06:00 50° ESE 15:10:52 10° S
Okean-O 2.6 15:01:56 10° SSE 15:06:22 85° ENE 15:10:50 10° NNW
Cosmos 1697 Rocket 2.7 15:03:34 10° SSW 15:09:07 62° ESE 15:14:21 12° NE
Cosmos 1356 Rocket 3.7 15:05:45 10° SSW 15:09:54 72° WNW 15:14:11 10° N
COBE Rocket 3.7 15:07:09 10° NNE 15:11:59 82° ESE 15:16:39 10° S
Cosmos 2360 4.5 15:09:19 10° S 15:14:43 46° ESE 15:18:45 18° NE
Cosmos 2112 Rocket 4.2 15:10:15 10° S 15:15:14 50° ESE 15:19:22 15° NE
SMAP 4.1 15:11:01 10° S 15:15:31 49° W 15:20:04 10° NNW
Tsikada Rocket 4.3 15:11:16 10° SSE 15:17:13 43° E 15:23:13 10° NNE
Cosmos 2278 3.8 15:12:05 10° S 15:17:38 58° ESE 15:22:14 15° NE
Cosmos 724 4.2 15:12:11 10° NW 15:18:05 85° NE 15:23:52 10° SE
Cosmos 1680 Rocket 3.4 15:16:15 10° S 15:21:25 66° ESE 15:25:59 14° NNE
Ariane Rocket 3.8 15:23:20 27° ENE 15:23:46 28° ENE 15:28:03 10° N
CZ-4 R/B 1.3 15:21:42 10° SSE 15:25:47 63° ENE 15:29:48 10° N
Lacrosse 4 Rocket 1.5 15:22:19 10° SW 15:26:23 71° NW 15:28:57 22° NNE
Cosmos 1633 Rocket 3.2 15:22:36 10° NNW 15:27:02 79° W 15:31:27 10° S
Cosmos 1656 4.1 15:21:45 10° SW 15:27:13 61° WNW 15:32:40 10° NNE
Cosmos 2228 Rocket 4.4 15:25:41 10° SSE 15:27:55 23° SE 15:27:55 23° SE
Cosmos 1939 Rocket 4.0 15:34:53 28° NNE 15:34:53 28° NNE 15:37:23 10° N
CZ-4 R/B 4.3 15:30:00 10° SSE 15:34:07 83° ENE 15:38:18 10° NNW
Sich 1 4.5 15:30:31 10° NNW 15:34:36 40° W 15:38:41 10° SSW
Cosmos 1844 Rocket 4.5 15:32:24 10° N 15:34:51 14° NNE 15:34:51 14° NNE
Cosmos 1464 Rocket 4.4 15:30:00 10° NNW 15:36:06 66° W 15:42:08 10° S
Cosmos 2227 4.3 15:30:32 10° NNW 15:36:13 54° ENE 15:39:40 23° SE
Cosmos 1151 Rocket 2.9 15:32:13 10° S 15:36:34 73° E 15:40:39 12° NNE
YAOGAN 6 2.5 15:34:33 10° S 15:38:02 83° WSW 15:41:33 10° NNW
Cosmos 1933 Rocket 3.4 15:37:58 10° N 15:42:18 62° ENE 15:46:36 10° SSE
COSMO-SKYMED 1 2.4 15:38:18 12° NNE 15:42:26 85° ESE 15:46:47 10° SSW
Cosmos 1328 Rocket 3.5 15:38:29 10° S 15:42:54 89° W 15:47:20 10° N
USA 215 3.6 15:43:02 32° ENE 15:45:49 51° NNE 15:52:06 10° NW
Cosmos 1515 Rocket 3.4 15:41:38 10° S 15:45:58 62° E 15:47:22 40° NNE
NOAA 11 4.2 15:40:52 10° SSE 15:46:09 58° ENE 15:51:29 10° N
Cosmos 1933 3.8 15:42:53 10° S 15:46:01 44° SE 15:46:01 44° SE
CSL-04 Debris 4.1 15:41:44 10° SSE 15:47:14 83° ENE 15:52:46 10° NNW
Cosmos 923 Rocket 4.4 15:42:14 10° SW 15:47:23 62° WNW 15:52:08 12° NNE
APEX 3.3 15:44:21 10° SSW 15:46:59 47° S 15:46:59 47° S
Cosmos 1624 Rocket 4.0 15:45:28 10° NNW 15:50:51 86° WSW 15:56:11 10° SSE
Cosmos 2056 Rocket 3.4 15:46:31 10° NNW 15:51:41 88° WSW 15:56:52 10° SSE
H-2A R/B 4.1 15:55:24 13° NNE 15:55:24 13° NNE 15:56:15 10° N
Meteor 1-25 Rocket 4.2 15:50:46 10° N 15:56:23 60° ENE 16:01:14 14° SSE
NOSS 2-3 (E) 3.9 15:53:26 10° SW 15:57:52 71° NW 15:59:44 38° NNE
Meteor 1-20 Rocket 4.2 15:52:58 10° N 15:58:49 63° ENE 16:03:51 14° SSE
CSL-04 Rocket 3.7 15:55:37 10° SSE 16:00:58 79° WSW 16:06:18 10° NNW
USA 116 4.2 15:59:03 25° NNE 16:01:52 87° ESE 16:07:02 10° SSW
NOSS 3-1 (C) 4.4 15:59:46 10° WSW 16:05:14 42° NW 16:09:09 21° NNE
NOSS 3-1 (A) 3.9 16:00:42 10° WSW 16:06:18 55° NW 16:09:53 26° NNE
NOSS 2-3 (D) 4.1 16:03:06 10° SW 16:07:31 64° NW 16:08:57 44° NNE
YAOGAN 1 3.0 16:04:29 10° S 16:08:45 60° W 16:13:04 10° NNW
SeaSat 1 3.8 16:05:45 10° S 16:10:19 38° WSW 16:14:55 10° NW
SL-16 R/B 3.8 16:07:10 10° S 16:09:02 20° SSE 16:09:02 20° SSE
IRS-1A Rocket 4.2 16:13:49 62° E 16:14:17 65° ENE 16:20:00 10° N
Cosmos 1980 Rocket 2.2 16:08:56 10° SSW 16:14:36 78° WNW 16:16:57 37° NNE
Cosmos 2322 Rocket 4.2 16:15:15 10° S 16:15:58 13° SSE 16:15:58 13° SSE
DMSP B5D1-3 4.4 16:20:13 81° ENE 16:20:24 83° ESE 16:25:33 10° SSW
Meteor 1-14 Rocket 4.2 16:18:50 10° N 16:24:50 73° ENE 16:24:55 73° E
Cosmos 1420 Rocket 4.1 16:28:56 10° NNW 16:33:35 70° NW 16:33:35 70° NW
CENTAUR R/B 3.6 16:29:20 10° NW 16:36:28 40° NNE 16:36:37 40° NNE
Cosmos 2263 Rocket 2.2 16:32:05 10° NNW 16:37:40 76° WSW 16:37:46 76° SW
Cosmos 1452 Rocket 4.1 16:35:01 10° NNW 16:38:58 51° NNW 16:38:58 51° NNW
USA 238 DEB 3.8 16:46:02 10° NW 16:52:34 66° NNE 16:52:34 66° NNE
USA 238 3.8 16:46:08 10° NW 16:52:39 65° NNE 16:52:39 65° NNE
Cosmos 1697 Rocket 4.4 16:48:42 10° WSW 16:53:31 28° NW 16:56:07 20° N
ATLAS 3B R/B 3.7 16:51:05 10° NW 16:55:31 32° N 16:55:31 32° N
NOSS 3-2 (A) 4.0 16:50:38 10° NW 16:57:25 66° NNE 16:57:25 66° NNE
Ariane Rocket 4.1 17:03:33 41° WNW 17:03:33 41° WNW 17:07:25 10° NNW
Lacrosse 4 Rocket 4.2 17:03:49 10° WNW 17:05:17 13° NW 17:05:17 13° NW
USA 215 3.8 17:30:23 52° WNW 17:30:23 52° WNW 17:35:13 10° NW
CENTAUR R/B 4.4 18:20:02 10° NW 18:23:48 33° NW 18:23:48 33° NW
